Regional Weather Roundup
Issued by NWS

Home | Current Version | Previous Version | Text Only | Print | Product List | Glossary Off
Versions: 1 2 3 4 5 6 7 8 9 10 11 12 13 14 15 16 17 18 19 20 21 22 23 24 25 26 27 28 29 30 31 32 33 34 35 36 37 38 39 40 41 42 43 44 45 46 47 48 49 50

000
ASUS43 KLMK 042310
RWRKY
KENTUCKY REGIONAL WEATHER ROUNDUP
NATIONAL WEATHER SERVICE LOUISVILLE KY
700 PM EDT SAT JUL 04 2015

NOTE "FAIR" INDICATES FEW OR NO CLOUDS BELOW 12,000 FEET
WITH NO SIGNIFICANT WEATHER AND/OR OBSTRUCTIONS TO VISIBILITY.

KYZ001>023-026-027-061>063-070>075-050000-
WESTERN AND SOUTH CENTRAL KENTUCKY

CITY           SKY/WX    TMP DP  RH WIND       PRES   REMARKS
PADUCAH        CLOUDY    78  67  68 NE5       29.96R
HENDERSON      CLOUDY    79  66  65 N3        29.94F
OWENSBORO      CLOUDY    81  67  62 NE3       29.96S
HOPKINSVILLE   CLOUDY    78  68  70 NE8       29.95S
BOWLING GREEN  CLOUDY    79  67  66 CALM      29.96F
GLASGOW        CLOUDY    78  67  68 NE3       29.97F
$$

KYZ024-025-028>034-038-045-046-053-050000-
NORTH CENTRAL KENTUCKY

CITY           SKY/WX    TMP DP  RH WIND       PRES   REMARKS
LOUISVILLE/SDF CLOUDY    81  65  58 E6        29.96S
LOUISVILLE/LOU CLOUDY    81  65  58 NE5       29.97S
FORT KNOX      CLOUDY    79  68  69 E3        29.96S
$$

KYZ035>037-039>044-047>052-055>060-089>105-050000-
NORTHEAST KENTUCKY

CITY           SKY/WX    TMP DP  RH WIND       PRES   REMARKS
LEXINGTON      PTSUNNY   78  67  68 NE5       29.99F
COVINGTON      MOSUNNY   78  63  59 N3        29.99S
FRANKFORT      PTSUNNY   79  65  62 E6        29.97F
$$

KYZ054-064>069-076>088-106>120-050000-
SOUTHEAST KENTUCKY

CITY           SKY/WX    TMP DP  RH WIND       PRES   REMARKS
JACKSON        CLOUDY    75  68  78 CALM      30.01F
LONDON         CLOUDY    78  65  63 NE3       30.00F
SOMERSET       CLOUDY    75  68  78 CALM      30.00F
MIDDLESBORO    CLOUDY    75  70  84 S3        30.01F
MONTICELLO     CLOUDY    78  72  82 CALM      30.02F
$$




USA.gov is the U.S. government's official web portal to all federal, state and local government web resources and services.